Regional Weather Roundup
Issued by NWS

Home | Current Version | Previous Version | Graphics & Text | Print | Product List | Glossary Off
Versions: 1 2 3 4 5 6 7 8 9 10 11 12 13 14 15 16 17 18 19 20 21 22 23 24 25 26 27 28 29 30 31 32 33 34 35 36 37 38 39 40 41 42 43 44 45 46 47 48 49 50

000
ASUS45 KSLC 281510
RWRUT

UTAH REGIONAL WEATHER ROUNDUP
NATIONAL WEATHER SERVICE SALT LAKE CITY UT
900 AM MDT THU AUG 28 2014

UTZ001>011-023>025-281600-

NORTHERN UTAH

CITY           SKY/WX    TMP DP  RH WIND       PRES   REMARKS
HILL AFB       SUNNY     61  49  65 E14       30.26R
LOGAN          SUNNY     59  54  83 NE3       30.25R
OGDEN          SUNNY     63  49  60 CALM      30.24R
PROVO AIRPORT  SUNNY     61  48  63 S6        30.29R
SALT LAKE CITY MOSUNNY   65  52  62 SE10      30.23R
VERNAL         CLOUDY    57  52  83 CALM      30.28R
WENDOVER       SUNNY     64  46  52 NE5       30.22S
HEBER CITY     CLOUDY    48  46  93 CALM      30.35R FOG
WEST JORDAN    SUNNY     66  57  72 SE12      30.26R

$$

UTZ012>022-026-027-281600-

SOUTHERN UTAH

CITY           SKY/WX    TMP DP  RH WIND       PRES   REMARKS
BRYCE CANYON   SUNNY     52  43  71 W7        30.42S
CEDAR CITY     SUNNY     57  47  69 CALM      30.30S
MILFORD        SUNNY     60  48  64 S8        30.27F
MOAB/CYNLANDS  SUNNY     66  50  56 CALM      30.23R
PRICE          SUNNY     61  45  55 VRB3      30.30S
ST GEORGE      SUNNY     70  46  43 CALM      30.18S

$$

REGIONAL REPORTS     COLORADO/ARIZONA

CITY           SKY/WX    TMP DP  RH WIND       PRES   REMARKS
CRAIG, CO      CLOUDY    54  51  90 VRB3      30.30S
GRAND JUNCTION PTSUNNY   59  53  80 SE6       30.26R
RIFLE          CLOUDY    55  52  89 W9        30.28S
MONTROSE       CLOUDY    56  52  86 S5        30.33R
CORTEZ         SUNNY     57  49  74 CALM      30.30F
PAGE, AZ       SUNNY     70  44  39 CALM      30.23R
GRAND CANYON   SUNNY     46  43  89 CALM      30.37R
KINGMAN        SUNNY     75  45  34 CALM      30.15R
FLAGSTAFF      SUNNY     58  49  72 CALM      30.38R

$$

REGIONAL REPORTS    NEVADA/IDAHO/WYOMING

CITY           SKY/WX    TMP DP  RH WIND       PRES   REMARKS
LAS VEGAS, NV  SUNNY     82  38  20 VRB3      30.04R
ELY            SUNNY     55  42  61 S12       30.35R
ELKO           SUNNY     55  39  54 E3        30.28S
POCATELLO, ID  SUNNY     66  54  65 CALM      30.22S
BURLEY         SUNNY     62  52  69 SE3       30.18R
EVANSTON, WY   MOSUNNY   51  48  89 SW7       30.37S
ROCK SPRINGS   PTSUNNY   52  48  86 W9        30.32R

$$


USA.gov is the U.S. government's official web portal to all federal, state and local government web resources and services.